Location: Fort Wayne
(41.1310°N, 85.1290°W)
Time: 22:24:37
(UTC-04:00)

IDEFIX/ARIANE 42P - Visible Passes

Search period start: 22 August 2017 00:00
Search period end: 01 September 2017 00:00
Orbit: 785 x 804 km, 98.2° (Epoch: 22 August)

Date Brightness Start Highest point End Pass type
(mag) Time Alt. Az. Time Alt. Az. Time Alt. Az.
22 Aug 5.7 05:53:13 10° ENE 05:55:03 12° E 05:56:53 10° ESE visible
25 Aug 5.4 06:06:33 10° NE 06:09:53 17° E 06:13:11 10° SE visible
28 Aug 5.2 06:20:32 10° NE 06:24:40 23° E 06:28:48 10° SE visible
29 Aug 5.7 05:53:53 10° ENE 05:56:03 12° E 05:58:12 10° ESE visible
31 Aug 4.6 06:34:45 10° NNE 06:39:26 32° E 06:44:05 10° SSE visible
